Change the Weather History Date:

Tuesday, October 9, 2012

  Actual Average Record
Temperature  
Mean Temperature 52 °F -  
Max Temperature 64 °F 62 °F 86 °F (1949)
Min Temperature 41 °F 43 °F 30 °F (1964)
Degree Days  
Heating Degree Days 12    
Growing Degree Days 2 (Base 50)    
Moisture  
Dew Point 37 °F    
Average Humidity 60    
Maximum Humidity 93    
Minimum Humidity 38    
Precipitation  
Precipitation 0.21 in - - ()
Sea Level Pressure  
Sea Level Pressure 29.86 in    
Wind  
Wind Speed 14 mph (WSW)    
Max Wind Speed 24 mph    
Max Gust Speed 36 mph    
Visibility 10 miles    
Events Rain    
Averages and records for this station are not official NWS values.
T = Trace of Precipitation, MM = Missing Value Source: NWS Daily Summary

Daily Weather History Graph

Daily Weather History Graph

Search for Another Location

Airport or City:

Trip Planner

Search our weather history database for the weather conditions in past years. The results will help you decide how hot, cold, wet, or windy it might be!

Date:

Astronomy

Oct. 09, 2012 Rise Set
Actual Time 6:58 AM CDT 6:17 PM CDT
Civil Twilight 6:29 AM CDT 6:46 PM CDT
Nautical Twilight 5:57 AM CDT 7:18 PM CDT
Astronomical Twilight 5:24 AM CDT 7:51 PM CDT
Moon 12:26 AM CDT (10/9) 2:52 PM CDT (10/9)
Length of Visible Light 12h 16m
Length of Day
11h 19m
Last Quarter, 36% of the Moon is Illuminated
Oct 9
Last Quarter
Oct 15
New
Oct 21
First Quarter
Oct 29
Full
Nov 6
Last Quarter

Hourly Weather History & Observations

Time (CDT) Temp. Windchill Dew Point Humidity Pressure Visibility Wind Dir Wind Speed Gust Speed Precip Events Conditions
12:53 AM 52.0 °F - 30.9 °F 45% 29.95 in 10.0 mi SSW 16.1 mph 24.2 mph N/A   Overcast
1:53 AM 51.1 °F - 32.0 °F 48% 29.95 in 10.0 mi SSW 15.0 mph 20.7 mph N/A   Clear
4:53 AM 50.0 °F - 33.1 °F 52% 29.91 in 10.0 mi SSW 10.4 mph 18.4 mph N/A   Clear
5:53 AM 50.0 °F - 33.1 °F 52% 29.91 in 10.0 mi SSW 13.8 mph - N/A   Clear
6:53 AM 48.9 °F - 34.0 °F 56% 29.90 in 10.0 mi SSW 15.0 mph 21.9 mph N/A   Scattered Clouds
7:53 AM 48.9 °F - 35.1 °F 59% 29.90 in 10.0 mi SW 13.8 mph 20.7 mph N/A   Overcast
8:53 AM 50.0 °F - 36.0 °F 59% 29.89 in 10.0 mi SSW 16.1 mph 25.3 mph N/A   Clear
9:53 AM 53.1 °F - 37.0 °F 55% 29.87 in 10.0 mi SW 13.8 mph 26.5 mph N/A   Clear
10:53 AM 57.0 °F - 37.9 °F 49% 29.86 in 10.0 mi SSW 19.6 mph 26.5 mph N/A   Clear
11:53 AM 57.9 °F - 37.9 °F 47% 29.85 in 10.0 mi SW 15.0 mph 25.3 mph N/A   Clear
12:53 PM 60.1 °F - 37.9 °F 44% 29.82 in 10.0 mi South 15.0 mph 25.3 mph N/A   Clear
1:53 PM 64.0 °F - 37.9 °F 38% 29.79 in 10.0 mi SW 24.2 mph 33.4 mph N/A   Clear
2:53 PM 64.0 °F - 37.9 °F 38% 29.77 in 10.0 mi SW 20.7 mph 31.1 mph N/A   Clear
3:53 PM 63.0 °F - 37.0 °F 38% 29.78 in 10.0 mi SW 17.3 mph 35.7 mph N/A   Clear
4:53 PM 62.1 °F - 39.0 °F 43% 29.78 in 10.0 mi WSW 11.5 mph 19.6 mph N/A   Partly Cloudy
5:53 PM 61.0 °F - 39.0 °F 44% 29.79 in 10.0 mi West 6.9 mph 19.6 mph N/A   Overcast
6:29 PM 53.6 °F - 41.0 °F 62% 29.82 in 10.0 mi NW 15.0 mph 24.2 mph N/A   Overcast
6:53 PM 53.1 °F - 41.0 °F 64% 29.84 in 10.0 mi WNW 13.8 mph 20.7 mph N/A   Overcast
7:09 PM 50.0 °F - 42.8 °F 76% 29.85 in 10.0 mi NW 12.7 mph 26.5 mph 0.00 in Rain Light Rain
7:53 PM 45.0 °F 38.2 °F 39.9 °F 82% 29.88 in 9.0 mi WNW 15.0 mph 24.2 mph 0.00 in Rain Light Rain
8:53 PM 42.1 °F 35.2 °F 37.9 °F 85% 29.90 in 5.0 mi WNW 12.7 mph 23.0 mph 0.09 in Rain Rain
9:29 PM 41.0 °F 37.1 °F 37.4 °F 87% 29.89 in 5.0 mi West 5.8 mph - 0.10 in Rain Rain
9:53 PM 41.0 °F 37.1 °F 39.0 °F 93% 29.89 in 8.0 mi SW 5.8 mph - 0.11 in Rain Light Rain
10:53 PM 41.0 °F 37.1 °F 39.0 °F 93% 29.89 in 10.0 mi WSW 5.8 mph - 0.01 in   Overcast
11:53 PM 42.1 °F 38.4 °F 39.9 °F 92% 29.90 in 10.0 mi WSW 5.8 mph - N/A   Scattered Clouds